When you browse on this site, cookies collect data to enhance your experience and personalize the content and advertising you see.
Visit our Privacy Policy to learn more. By continuing to use the site, you agree to this use of cookies and data.
  • In Romania
  • List of Countries
  • For 7 days
  • Water Temperature
  • Satellite Maps
  • Weather Map
  • Weather Widgets
  • user-avatar
    Login

    Hourly Weather Uige

    Today, 20 June, Thursday

    Time Temperature Precipitation Wind Pressure Humidity
    00:00 +21°C° 0 mm 1 mps 693 mmHg 48%
    01:00 +21°C° 0 mm 1 mps 693 mmHg 51%
    02:00 +20°C° 0 mm 1 mps 692 mmHg 51%
    03:00 +20°C° 0 mm 1 mps 692 mmHg 52%
    04:00 +20°C° 0 mm 1 mps 692 mmHg 52%
    05:00 +20°C° 0 mm 1 mps 692 mmHg 52%
    06:00 +20°C° 0 mm 1 mps 693 mmHg 51%
    07:00 +21°C° 0 mm 1 mps 693 mmHg 52%
    08:00 +24°C° 0 mm 1 mps 694 mmHg 44%
    09:00 +27°C° 0 mm 1 mps 695 mmHg 36%
    10:00 +31°C° 0 mm 1 mps 695 mmHg 28%
    11:00 +32°C° 0 mm 1 mps 695 mmHg 25%
    12:00 +34°C° 0 mm 1 mps 694 mmHg 23%
    13:00 +34°C° 0 mm 0 mps 694 mmHg 20%
    14:00 +33°C° 0 mm 0 mps 693 mmHg 21%
    15:00 +34°C° 0 mm 1 mps 692 mmHg 22%
    16:00 +34°C° 0 mm 1 mps 692 mmHg 22%
    17:00 +28°C° 0 mm 0 mps 692 mmHg 29%
    18:00 +25°C° 0 mm 0 mps 692 mmHg 36%
    19:00 +22°C° 0 mm 0 mps 692 mmHg 42%
    20:00 +21°C° 0 mm 0 mps 692 mmHg 44%
    21:00 +23°C° 0 mm 1 mps 693 mmHg 45%
    22:00 +22°C° 0 mm 1 mps 693 mmHg 47%
    23:00 +21°C° 0 mm 1 mps 693 mmHg 46%

    Tomorrow, 21 June, Friday

    Time Temperature Precipitation Wind Pressure Humidity
    00:00 +21°C° 0 mm 1 mps 693 mmHg 46%
    01:00 +21°C° 0 mm 1 mps 693 mmHg 46%
    02:00 +20°C° 0 mm 1 mps 692 mmHg 46%
    03:00 +20°C° 0 mm 1 mps 692 mmHg 47%
    04:00 +20°C° 0 mm 1 mps 692 mmHg 47%
    05:00 +20°C° 0 mm 1 mps 692 mmHg 48%
    06:00 +20°C° 0 mm 1 mps 693 mmHg 48%
    07:00 +21°C° 0 mm 1 mps 694 mmHg 48%
    08:00 +24°C° 0 mm 1 mps 694 mmHg 41%
    09:00 +28°C° 0 mm 1 mps 695 mmHg 33%
    10:00 +32°C° 0 mm 1 mps 695 mmHg 25%
    11:00 +33°C° 0 mm 1 mps 695 mmHg 23%
    12:00 +35°C° 0 mm 1 mps 695 mmHg 20%
    13:00 +35°C° 0 mm 0 mps 694 mmHg 18%
    14:00 +36°C° 0 mm 1 mps 693 mmHg 19%
    15:00 +35°C° 0 mm 1 mps 693 mmHg 20%
    16:00 +34°C° 0 mm 1 mps 692 mmHg 21%
    17:00 +31°C° 0 mm 1 mps 692 mmHg 29%
    18:00 +27°C° 0 mm 1 mps 692 mmHg 38%
    19:00 +24°C° 0 mm 1 mps 692 mmHg 47%
    20:00 +23°C° 0 mm 1 mps 692 mmHg 51%
    21:00 +22°C° 0 mm 1 mps 693 mmHg 56%
    22:00 +21°C° 0 mm 1 mps 693 mmHg 60%
    23:00 +20°C° 0 mm 1 mps 693 mmHg 66%

    Day after tomorrow, 22 June, Saturday

    Time Temperature Precipitation Wind Pressure Humidity
    00:00 +17°C° 0 mm 0 mps 693 mmHg 72%
    01:00 +17°C° 0 mm 0 mps 692 mmHg 78%
    02:00 +16°C° 0 mm 0 mps 692 mmHg 81%
    03:00 +16°C° 0 mm 0 mps 692 mmHg 83%
    04:00 +18°C° 0 mm 1 mps 692 mmHg 86%
    05:00 +18°C° 0 mm 1 mps 692 mmHg 82%
    06:00 +19°C° 0 mm 1 mps 692 mmHg 79%
    07:00 +19°C° 0 mm 1 mps 693 mmHg 75%
    08:00 +23°C° 0 mm 1 mps 693 mmHg 61%
    09:00 +26°C° 0 mm 1 mps 694 mmHg 46%
    10:00 +30°C° 0 mm 1 mps 695 mmHg 31%
    11:00 +32°C° 0 mm 1 mps 694 mmHg 28%
    12:00 +34°C° 0 mm 2 mps 694 mmHg 25%
    13:00 +35°C° 0 mm 2 mps 694 mmHg 21%
    14:00 +35°C° 0 mm 2 mps 693 mmHg 22%
    15:00 +34°C° 0 mm 2 mps 692 mmHg 23%
    16:00 +34°C° 0 mm 3 mps 692 mmHg 24%
    17:00 +29°C° 0 mm 2 mps 691 mmHg 31%
    18:00 +26°C° 0 mm 2 mps 691 mmHg 38%
    19:00 +23°C° 0 mm 1 mps 691 mmHg 45%
    20:00 +22°C° 0 mm 1 mps 692 mmHg 51%
    21:00 +19°C° 0 mm 0 mps 692 mmHg 57%
    22:00 +17°C° 0 mm 0 mps 693 mmHg 63%
    23:00 +17°C° 0 mm 0 mps 692 mmHg 67%

    23 June, Sunday

    Time Temperature Precipitation Wind Pressure Humidity
    00:00 +16°C° 0 mm 0 mps 692 mmHg 70%
    01:00 +18°C° 0 mm 1 mps 692 mmHg 73%
    02:00 +16°C° 0 mm 1 mps 692 mmHg 77%
    03:00 +16°C° 0 mm 1 mps 692 mmHg 81%
    04:00 +16°C° 0 mm 1 mps 691 mmHg 85%
    05:00 +16°C° 0 mm 1 mps 692 mmHg 83%
    06:00 +16°C° 0 mm 1 mps 692 mmHg 82%
    07:00 +16°C° 0 mm 0 mps 692 mmHg 81%
    08:00 +21°C° 0 mm 1 mps 693 mmHg 65%
    09:00 +25°C° 0 mm 1 mps 694 mmHg 50%
    10:00 +29°C° 0 mm 1 mps 694 mmHg 34%
    11:00 +30°C° 0 mm 1 mps 694 mmHg 30%
    12:00 +32°C° 0 mm 2 mps 693 mmHg 26%
    13:00 +34°C° 0 mm 2 mps 693 mmHg 23%
    14:00 +32°C° 0 mm 2 mps 692 mmHg 24%
    15:00 +33°C° 0 mm 3 mps 692 mmHg 25%
    16:00 +33°C° 0 mm 3 mps 691 mmHg 25%
    17:00 +28°C° 0 mm 2 mps 691 mmHg 34%
    18:00 +25°C° 0 mm 2 mps 691 mmHg 42%
    19:00 +22°C° 0 mm 1 mps 691 mmHg 50%
    20:00 +21°C° 0 mm 1 mps 692 mmHg 54%
    21:00 +20°C° 0 mm 1 mps 692 mmHg 58%
    22:00 +17°C° 0 mm 0 mps 692 mmHg 62%
    23:00 +18°C° 0 mm 1 mps 692 mmHg 66%

    24 June, Monday

    Time Temperature Precipitation Wind Pressure Humidity
    00:00 +18°C° 0 mm 1 mps 692 mmHg 69%
    01:00 +16°C° 0 mm 1 mps 691 mmHg 73%
    02:00 +16°C° 0 mm 1 mps 691 mmHg 75%
    03:00 +15°C° 0 mm 1 mps 691 mmHg 77%
    04:00 +15°C° 0 mm 1 mps 691 mmHg 79%
    05:00 +16°C° 0 mm 1 mps 691 mmHg 78%
    06:00 +16°C° 0 mm 1 mps 692 mmHg 76%
    07:00 +16°C° 0 mm 1 mps 692 mmHg 75%
    08:00 +21°C° 0 mm 1 mps 693 mmHg 61%
    09:00 +25°C° 0 mm 1 mps 693 mmHg 46%
    10:00 +29°C° 0 mm 1 mps 694 mmHg 32%
    11:00 +31°C° 0 mm 1 mps 694 mmHg 27%
    12:00 +33°C° 0 mm 1 mps 693 mmHg 23%
    13:00 +35°C° 0 mm 1 mps 693 mmHg 18%
    14:00 +35°C° 0 mm 2 mps 692 mmHg 19%
    15:00 +34°C° 0 mm 2 mps 691 mmHg 19%
    16:00 +34°C° 0 mm 2 mps 691 mmHg 20%
    17:00 +29°C° 0 mm 2 mps 691 mmHg 28%
    18:00 +26°C° 0 mm 1 mps 691 mmHg 36%
    19:00 +23°C° 0 mm 1 mps 691 mmHg 44%
    20:00 +22°C° 0 mm 1 mps 691 mmHg 49%
    21:00 +20°C° 0 mm 1 mps 691 mmHg 54%
    22:00 +19°C° 0 mm 1 mps 692 mmHg 59%
    23:00 +18°C° 0 mm 1 mps 692 mmHg 63%

    25 June, Tuesday

    Time Temperature Precipitation Wind Pressure Humidity
    00:00 +18°C° 0 mm 1 mps 691 mmHg 67%
    01:00 +16°C° 0 mm 1 mps 691 mmHg 71%
    02:00 +16°C° 0 mm 1 mps 691 mmHg 74%
    03:00 +15°C° 0 mm 1 mps 691 mmHg 77%
    04:00 +15°C° 0 mm 1 mps 691 mmHg 81%
    05:00 +15°C° 0 mm 1 mps 691 mmHg 80%
    06:00 +16°C° 0 mm 1 mps 692 mmHg 79%
    07:00 +16°C° 0 mm 1 mps 692 mmHg 78%
    08:00 +21°C° 0 mm 1 mps 693 mmHg 63%
    09:00 +25°C° 0 mm 1 mps 693 mmHg 47%
    10:00 +29°C° 0 mm 1 mps 694 mmHg 32%
    11:00 +30°C° 0 mm 1 mps 693 mmHg 28%
    12:00 +32°C° 0 mm 2 mps 693 mmHg 25%
    13:00 +35°C° 0 mm 2 mps 693 mmHg 21%
    14:00 +34°C° 0 mm 2 mps 692 mmHg 21%
    15:00 +34°C° 0 mm 2 mps 692 mmHg 22%
    16:00 +34°C° 0 mm 2 mps 691 mmHg 22%
    17:00 +29°C° 0 mm 2 mps 691 mmHg 31%
    18:00 +26°C° 0 mm 1 mps 691 mmHg 40%
    19:00 +23°C° 0 mm 1 mps 691 mmHg 48%
    20:00 +22°C° 0 mm 1 mps 691 mmHg 52%
    21:00 +21°C° 0 mm 1 mps 692 mmHg 56%
    22:00 +20°C° 0 mm 1 mps 692 mmHg 60%
    23:00 +19°C° 0 mm 1 mps 692 mmHg 63%
    Show more